Location: *
(40.9167°N, 9.5000°E)
Time: 07:11:34
(UTC+00:00)

Cosmos 921 Rocket - Pass Details

Date: 09 April 2020
Orbit: 572 x 632 km, 75.8° (Epoch: 03 June)

Event Time Altitude Azimuth Distance (km) Brightness Sun altitude
Rises 19:01:11 0° 349° (N) 2,787 6.9 -12.6°
Reaches altitude 10° 19:03:28 10° 356° (N) 1,886 5.9 -13.0°
Maximum altitude 19:07:29 44° 69° (ENE) 802 3.3 -13.7°
Enters shadow 19:09:47 22° 131° (SE) 1,266 4.1 -14.1°
